CW4279 Weather Reports


time (UTC)temp
F
wind
direction
speed
knots
gust
knots
rain 1hr
in
rain 24hr
in
rain mn
in
humidity
%
barometer
mb
20260906014623 71 130 0.0 0.9 0.00 0.00 0.00 91 1049.2
20260906014119 71 126 0.0 0.0 0.00 0.00 0.00 90 1049.1
20260906013614 72 126 0.0 0.0 0.00 0.00 0.00 90 1049.0
20260906013110 72 131 0.0 0.0 0.00 0.00 0.00 88 1048.7
20260906012605 72 130 0.0 0.0 0.00 0.00 0.00 88 1048.1
20260906012105 73 122 0.0 0.0 0.00 0.00 0.00 87 1048.1
20260906011601 73 130 0.0 0.0 0.00 0.00 0.00 86 1047.7
20260906011055 73 132 0.0 0.9 0.00 0.00 0.00 86 1047.8
20260906010550 74 131 0.0 0.9 0.00 0.00 0.00 85 1047.8
20260906010047 74 103 0.9 0.9 0.00 0.00 0.00 84 1047.5
20260906005546 74 145 0.0 0.9 0.00 0.00 0.00 83 1047.6
20260906005045 75 147 0.0 0.0 0.00 0.00 0.00 82 1047.8
20260906004544 76 146 0.0 0.9 0.00 0.00 0.00 81 1047.3
20260906004039 76 148 0.0 0.0 0.00 0.00 0.00 80 1047.4
20260906003534 77 154 0.0 0.9 0.00 0.00 0.00 79 1047.0
20260906003031 77 147 0.0 1.7 0.00 0.00 0.00 78 1047.2
20260906002525 77 144 0.0 1.7 0.00 0.00 0.00 78 1047.0
20260906002020 77 70 1.7 1.7 0.00 0.00 0.00 77 1046.9
20260906001515 78 149 0.0 1.7 0.00 0.00 0.00 77 1046.9
20260906001009 78 129 0.9 1.7 0.00 0.00 0.00 76 1047.0
20260906000506 78 135 0.0 1.7 0.00 0.00 0.00 75 1047.2
20260906000006 79 113 0.0 1.7 0.00 0.00 0.00 74 1047.1
20260905235500 79 66 2.6 4.3 0.00 0.00 0.00 73 1046.8
20260905234955 79 112 0.9 0.9 0.00 0.00 0.00 73 1046.8
20260905234450 79 126 0.9 1.7 0.00 0.00 0.00 72 1047.1
20260905233944 79 70 2.6 4.3 0.00 0.00 0.00 72 1047.3
20260905233440 80 155 0.9 0.9 0.00 0.00 0.00 72 1047.5
20260905232939 80 159 0.0 0.9 0.00 0.00 0.00 72 1047.3
20260905232435 80 52 0.9 1.7 0.00 0.00 0.00 71 1047.5
20260905231930 81 142 0.0 0.9 0.00 0.00 0.00 69 1047.3
20260905231426 81 155 2.6 4.3 0.00 0.00 0.00 69 1047.4
20260905230917 82 81 1.7 1.7 0.00 0.00 0.00 69 1047.6
20260905230414 82 146 0.0 2.6 0.00 0.00 0.00 70 1047.6
20260905225908 82 71 0.9 1.7 0.00 0.00 0.00 69 1047.8
20260905225403 82 158 0.0 1.7 0.00 0.00 0.00 70 1047.8
20260905224858 82 48 2.6 2.6 0.00 0.00 0.00 68 1047.8
20260905224353 82 144 0.0 0.9 0.00 0.00 0.00 69 1048.1
20260905223847 82 149 0.0 1.7 0.00 0.00 0.00 69 1047.7
20260905223346 82 141 1.7 1.7 0.00 0.00 0.00 68 1047.7
20260905222840 82 149 0.0 2.6 0.00 0.00 0.00 69 1047.8
20260905222339 82 117 1.7 1.7 0.00 0.00 0.00 69 1047.8
20260905221835 82 67 3.5 4.3 0.00 0.00 0.00 69 1047.9
20260905221332 83 79 2.6 2.6 0.00 0.00 0.00 67 1047.9
20260905220827 83 122 0.0 0.9 0.00 0.00 0.00 68 1047.8
20260905220323 83 148 0.9 1.7 0.00 0.00 0.00 69 1048.0
20260905215822 82 159 0.9 4.3 0.00 0.00 0.00 70 1047.6
20260905215318 83 96 1.7 1.7 0.00 0.00 0.00 69 1047.7
20260905214815 81 151 0.9 1.7 0.00 0.00 0.00 71 1047.9
20260905214310 82 180 0.9 2.6 0.00 0.00 0.00 70 1048.0
20260905213804 83 330 0.9 2.6 0.00 0.00 0.00 71 1048.0
20260905213300 83 215 1.7 4.3 0.00 0.00 0.00 70 1048.0
20260905212755 82 118 1.7 1.7 0.00 0.00 0.00 71 1048.2
20260905212254 81 136 2.6 5.2 0.00 0.00 0.00 72 1048.5
20260905211749 82 163 0.0 0.9 0.00 0.00 0.00 69 1048.6
20260905211244 81 135 0.9 1.7 0.00 0.00 0.00 73 1048.5
20260905210740 82 137 0.9 1.7 0.00 0.00 0.00 72 1048.7
20260905210235 82 164 0.9 2.6 0.00 0.00 0.00 72 1048.7
20260905205734 82 157 0.9 1.7 0.00 0.00 0.00 70 1048.9
20260905205229 81 111 0.9 2.6 0.00 0.00 0.00 73 1049.2
20260905204728 81 156 0.9 0.9 0.00 0.00 0.00 73 1048.9
20260905204224 81 163 0.9 1.7 0.00 0.00 0.00 73 1049.2
20260905203723 81 113 0.9 0.9 0.00 0.00 0.00 74 1049.1
20260905203219 81 85 1.7 2.6 0.00 0.00 0.00 73 1049.2
20260905202714 81 158 0.0 0.9 0.00 0.00 0.00 73 1049.2
20260905202209 81 270 1.7 1.7 0.00 0.00 0.00 73 1049.5
20260905201704 81 136 0.0 0.9 0.00 0.00 0.00 74 1049.6
20260905201159 80 109 0.9 2.6 0.00 0.00 0.00 74 1049.6
20260905200654 81 179 1.7 2.6 0.00 0.00 0.00 72 1049.6
20260905200149 79 134 0.9 2.6 0.00 0.00 0.00 75 1049.8
20260905195647 80 86 2.6 4.3 0.00 0.00 0.00 76 1049.8
20260905195142 82 50 2.6 2.6 0.00 0.00 0.00 71 1049.6
20260905194637 80 115 0.9 2.6 0.00 0.00 0.00 75 1049.7
20260905194132 80 80 0.9 1.7 0.00 0.00 0.00 75 1049.7
20260905193627 79 134 0.0 1.7 0.00 0.00 0.00 76 1049.8
20260905193121 80 143 0.9 1.7 0.00 0.00 0.00 75 1049.6
20260905192617 80 49 1.7 2.6 0.00 0.00 0.00 74 1049.5
20260905192113 80 106 0.9 1.7 0.00 0.00 0.00 77 1049.7
20260905191612 79 118 0.0 0.9 0.00 0.00 0.00 76 1049.8
20260905191111 78 183 0.9 0.9 0.00 0.00 0.00 79 1049.8
20260905190609 78 141 0.9 1.7 0.00 0.00 0.00 79 1049.8
20260905190108 78 132 0.0 2.6 0.00 0.00 0.00 79 1049.6
20260905185607 77 104 0.9 1.7 0.00 0.00 0.00 79 1049.7
20260905185102 77 155 0.9 2.6 0.00 0.00 0.00 80 1049.6
20260905184557 76 137 0.0 0.9 0.00 0.00 0.00 82 1049.9
20260905184055 77 43 1.7 2.6 0.00 0.00 0.00 80 1049.9
20260905183554 77 80 0.9 1.7 0.00 0.00 0.00 80 1049.6
20260905183045 76 149 0.0 1.7 0.00 0.00 0.00 82 1049.9
20260905182544 76 355 0.9 1.7 0.00 0.00 0.00 82 1049.6
20260905182038 76 92 2.6 2.6 0.00 0.00 0.00 81 1049.6
20260905181533 77 22 1.7 1.7 0.00 0.00 0.00 81 1049.7
20260905181032 76 107 1.7 4.3 0.00 0.00 0.00 82 1049.8
20260905180527 75 140 0.0 0.9 0.00 0.00 0.00 82 1050.1
20260905180023 74 119 0.0 0.9 0.00 0.00 0.00 85 1050.0
20260905175522 73 100 0.9 1.7 0.00 0.00 0.00 87 1050.0
20260905175018 74 82 0.9 2.6 0.00 0.00 0.00 86 1049.9
20260905174513 74 135 0.9 2.6 0.00 0.00 0.00 85 1050.0
20260905174009 74 24 1.7 6.1 0.00 0.00 0.00 85 1049.8
20260905173505 75 142 0.9 1.7 0.00 0.00 0.00 83 1049.8
20260905173000 75 172 2.6 5.2 0.00 0.00 0.00 85 1050.1
20260905172458 74 71 0.9 2.6 0.00 0.00 0.00 85 1049.8
20260905171954 73 48 2.6 5.2 0.00 0.00 0.00 87 1050.3
20260905171450 73 161 0.9 2.6 0.00 0.00 0.00 87 1050.5
20260905170946 73 72 2.6 2.6 0.00 0.00 0.00 86 1050.7
20260905170442 73 156 0.0 0.9 0.00 0.00 0.00 87 1050.5
20260905165941 73 154 0.0 0.9 0.00 0.00 0.00 86 1050.6
20260905165436 73 130 0.0 0.9 0.00 0.00 0.00 87 1050.5
20260905164932 73 136 0.0 1.7 0.00 0.00 0.00 87 1050.7
20260905164426 73 147 0.0 0.9 0.00 0.00 0.00 87 1050.4
20260905163921 72 130 0.9 0.9 0.00 0.00 0.00 89 1050.6
20260905163418 72 128 0.9 1.7 0.00 0.00 0.00 89 1050.3
20260905162914 72 90 0.9 0.9 0.00 0.00 0.00 89 1050.7
20260905162408 72 162 0.9 1.7 0.00 0.00 0.00 89 1050.9
20260905161903 71 129 0.0 1.7 0.00 0.00 0.00 89 1050.4
20260905161356 72 135 0.0 0.9 0.00 0.00 0.00 89 1050.3
20260905160855 71 55 0.9 1.7 0.00 0.00 0.00 90 1050.1
20260905160349 72 145 0.9 2.6 0.00 0.00 0.00 89 1050.4
20260905155849 71 106 0.9 1.7 0.00 0.00 0.00 91 1050.2
20260905155343 71 79 0.0 2.6 0.00 0.00 0.00 91 1050.1
20260905154842 70 111 1.7 1.7 0.00 0.00 0.00 91 1050.1
20260905154338 70 142 0.0 2.6 0.00 0.00 0.00 92 1050.5
20260905153833 70 83 0.9 1.7 0.00 0.00 0.00 91 1050.4
20260905153330 70 136 0.0 1.7 0.00 0.00 0.00 93 1050.2
20260905152829 70 87 2.6 2.6 0.00 0.00 0.00 92 1050.3
20260905152328 69 133 0.0 1.7 0.00 0.00 0.00 93 1050.2
20260905151824 69 68 0.9 1.7 0.00 0.00 0.00 93 1050.2
20260905151319 69 91 0.9 0.9 0.00 0.00 0.00 94 1050.4
20260905150819 68 123 0.0 0.9 0.00 0.00 0.00 95 1050.4
20260905150313 68 140 0.0 0.9 0.00 0.00 0.00 95 1050.2
20260905145810 68 113 0.9 0.9 0.00 0.00 0.00 95 1050.3
20260905145306 68 134 0.9 0.9 0.00 0.00 0.00 95 1050.1
20260905144803 68 136 0.0 0.9 0.00 0.00 0.00 96 1050.2
20260905144300 68 127 0.0 0.9 0.00 0.00 0.00 96 1050.1
20260905143758 68 137 0.0 0.0 0.00 0.00 0.00 96 1050.3
20260905143253 68 140 0.0 1.7 0.00 0.00 0.00 97 1050.5
20260905142751 68 143 0.0 0.0 0.00 0.00 0.00 97 1050.4
20260905142246 67 154 0.0 0.9 0.00 0.00 0.00 97 1050.4
20260905141742 67 107 0.0 0.9 0.00 0.00 0.00 97 1050.5
20260905141238 67 129 0.0 0.9 0.00 0.00 0.00 97 1050.3
20260905140733 67 156 0.9 0.9 0.00 0.00 0.00 98 1050.0
20260905140233 67 136 0.0 0.9 0.00 0.00 0.00 99 1049.9
20260905135726 66 128 0.0 0.0 0.00 0.00 0.00 99 1049.8
20260905135222 66 97 1.7 1.7 0.00 0.00 0.00 99 1049.8
20260905134721 66 135 0.0 0.9 0.00 0.00 0.00 99 1049.8
20260905134221 66 148 0.0 0.9 0.00 0.00 0.00 99 1049.6
20260905133716 66 139 0.0 0.0 0.00 0.00 0.00 99 1049.7
20260905133211 65 69 1.7 2.6 0.00 0.00 0.00 99 1049.3
20260905132710 65 114 0.9 0.9 0.00 0.00 0.00 99 1049.1
20260905132206 65 140 0.0 0.9 0.00 0.00 0.00 99 1049.2
20260905131701 65 134 0.0 0.9 0.00 0.00 0.00 99 1049.1
20260905131155 65 84 0.9 1.7 0.00 0.00 0.00 99 1049.3
20260905130650 65 113 1.7 1.7 0.00 0.00 0.00 99 1048.9
20260905130150 64 132 0.0 0.9 0.00 0.00 0.00 99 1048.8
20260905125644 64 122 0.0 1.7 0.00 0.00 0.00 99 1048.8
20260905125140 64 117 0.0 0.9 0.00 0.00 0.00 99 1049.0
20260905124636 64 122 0.0 0.0 0.00 0.00 0.00 99 1049.1
20260905124132 64 116 0.0 0.9 0.00 0.00 0.00 99 1049.1
20260905123627 64 117 0.0 0.0 0.00 0.00 0.00 99 1049.2
20260905123124 64 117 0.0 0.9 0.00 0.00 0.00 99 1049.1
20260905122618 64 117 0.0 0.0 0.00 0.00 0.00 99 1049.3
20260905122113 64 119 0.0 0.0 0.00 0.00 0.00 99 1049.3
20260905121607 64 119 0.0 0.0 0.00 0.00 0.00 99 1049.4
20260905121103 64 119 0.0 0.0 0.00 0.00 0.00 99 1048.9
20260905120602 64 119 0.0 0.0 0.00 0.00 0.00 99 1049.1
20260905120057 64 119 0.0 0.9 0.00 0.00 0.00 99 1049.2
20260905115556 64 119 0.0 0.0 0.00 0.00 0.00 99 1049.0
20260905115051 64 119 0.0 0.0 0.00 0.00 0.00 99 1049.2
20260905114550 64 119 0.0 0.0 0.00 0.00 0.00 99 1049.1
20260905114049 64 119 0.0 0.0 0.00 0.00 0.00 99 1048.9
20260905113544 63 119 0.0 0.0 0.00 0.00 0.00 99 1048.9
20260905113039 64 119 0.0 0.9 0.00 0.00 0.00 99 1048.8
20260905112534 63 120 0.0 0.0 0.00 0.00 0.00 99 1048.7
20260905112030 63 119 0.0 0.0 0.00 0.00 0.00 99 1048.6
20260905111525 63 126 0.0 0.9 0.00 0.00 0.00 99 1048.4
20260905111024 63 145 0.0 0.0 0.00 0.00 0.00 99 1048.2
20260905110524 63 109 0.9 0.9 0.00 0.00 0.00 99 1048.5
20260905110019 63 127 0.0 0.0 0.00 0.00 0.00 99 1048.8
20260905105514 63 156 0.0 0.0 0.00 0.00 0.00 99 1048.7
20260905105013 63 155 0.0 0.0 0.00 0.00 0.00 99 1048.6
20260905104509 63 150 0.0 0.0 0.00 0.00 0.00 99 1048.2
20260905104008 63 120 0.0 0.9 0.00 0.00 0.00 99 1047.9
20260905103504 63 139 0.0 0.9 0.00 0.00 0.00 99 1048.0
20260905103000 63 108 0.0 0.0 0.00 0.00 0.00 99 1047.7
20260905102456 63 113 0.0 0.9 0.00 0.00 0.00 99 1047.7
20260905101951 63 126 0.0 0.0 0.00 0.00 0.00 99 1047.5
20260905101450 63 133 0.0 0.9 0.00 0.00 0.00 99 1047.5
20260905100949 63 96 0.9 0.9 0.00 0.00 0.00 99 1047.8
20260905100445 63 127 0.0 1.7 0.00 0.00 0.00 99 1047.6
20260905095943 63 146 0.0 1.7 0.00 0.00 0.00 99 1047.5
20260905095438 63 80 0.9 5.2 0.00 0.00 0.00 99 1047.5
20260905094933 63 149 0.0 1.7 0.00 0.00 0.00 99 1047.3
20260905094429 63 109 0.9 1.7 0.00 0.00 0.00 99 1047.6
20260905093928 63 124 0.0 0.9 0.00 0.00 0.00 99 1047.4
20260905093423 63 124 0.0 0.9 0.00 0.00 0.00 99 1047.5
20260905092919 64 56 0.9 2.6 0.00 0.00 0.00 99 1047.6
20260905092414 64 98 0.9 1.7 0.00 0.00 0.00 99 1047.9
20260905091908 64 139 0.0 0.9 0.00 0.00 0.00 99 1047.8
20260905091403 64 126 0.0 0.0 0.00 0.00 0.00 99 1048.0
20260905090902 64 146 0.0 0.9 0.00 0.00 0.00 99 1048.2
20260905090358 64 126 0.9 1.7 0.00 0.00 0.00 99 1048.2
20260905085857 64 66 0.9 1.7 0.00 0.00 0.00 99 1048.2
20260905085356 64 72 0.9 1.7 0.00 0.00 0.00 99 1048.5
20260905084853 64 112 0.9 2.6 0.00 0.00 0.00 99 1048.2
20260905084351 64 117 0.9 0.9 0.00 0.00 0.00 99 1048.2
20260905083847 64 199 0.9 0.9 0.00 0.00 0.00 99 1048.5
20260905083343 64 139 0.0 0.9 0.00 0.00 0.00 99 1048.6
20260905082838 64 144 0.0 0.9 0.00 0.00 0.00 99 1048.6
20260905082334 64 142 0.0 0.9 0.00 0.00 0.00 99 1048.5
20260905081829 64 148 0.9 1.7 0.00 0.00 0.00 99 1048.4
20260905081324 64 186 0.9 1.7 0.00 0.00 0.00 99 1048.5
20260905080823 64 145 0.9 1.7 0.00 0.00 0.00 99 1048.4
20260905080318 64 105 0.9 0.9 0.00 0.00 0.00 99 1048.5
20260905075817 64 126 0.0 0.9 0.00 0.00 0.00 99 1048.5
20260905075316 64 130 0.0 0.9 0.00 0.00 0.00 99 1048.5
20260905074815 64 88 1.7 1.7 0.00 0.00 0.00 99 1048.5
20260905074311 64 116 0.0 1.7 0.00 0.00 0.00 99 1048.6
20260905073806 64 88 0.9 0.9 0.00 0.00 0.00 99 1048.6
20260905073302 64 154 0.9 1.7 0.00 0.00 0.00 99 1048.7
20260905072756 64 125 0.0 0.0 0.00 0.00 0.00 99 1048.5
20260905072251 64 136 0.0 0.0 0.00 0.00 0.00 99 1048.5
20260905071748 64 127 0.0 1.7 0.00 0.00 0.00 99 1048.4
20260905071244 64 112 1.7 2.6 0.00 0.00 0.00 99 1048.7
20260905070738 64 123 0.9 0.9 0.00 0.00 0.00 99 1048.6
20260905070235 64 169 1.7 1.7 0.00 0.00 0.00 99 1048.2
20260905065733 64 98 1.7 2.6 0.00 0.00 0.00 99 1048.5
20260905065227 64 114 0.0 1.7 0.00 0.00 0.00 99 1048.4
20260905064722 64 110 0.0 0.9 0.00 0.00 0.00 99 1048.1
20260905064218 64 110 0.0 0.9 0.00 0.00 0.00 99 1048.2
20260905063716 64 110 0.9 0.9 0.00 0.00 0.00 99 1048.2
20260905063213 64 103 0.0 1.7 0.00 0.00 0.00 99 1048.1
20260905062708 64 109 0.9 0.9 0.00 0.00 0.00 99 1048.2
20260905062208 64 155 0.9 1.7 0.00 0.00 0.00 99 1048.1
20260905061708 64 136 0.0 0.9 0.00 0.00 0.00 99 1048.0
20260905061203 64 88 0.0 0.9 0.00 0.00 0.00 99 1047.9
20260905060657 64 103 0.0 1.7 0.00 0.00 0.00 98 1048.0
20260905060154 65 109 1.7 4.3 0.00 0.00 0.00 98 1047.9
20260905055653 65 120 0.9 2.6 0.00 0.00 0.00 98 1048.0
20260905055148 65 120 0.0 5.2 0.00 0.00 0.00 98 1048.2
20260905054644 65 124 0.0 0.9 0.00 0.00 0.00 97 1048.0
20260905054139 65 109 0.9 1.7 0.00 0.00 0.00 97 1048.2
20260905053639 65 104 0.9 1.7 0.00 0.00 0.00 97 1048.2
20260905053134 65 140 0.9 2.6 0.00 0.00 0.00 97 1048.1
20260905052633 65 127 0.9 0.9 0.00 0.00 0.00 97 1047.9
20260905052128 65 124 0.9 2.6 0.00 0.00 0.00 96 1047.8
20260905051623 65 103 0.0 0.9 0.00 0.00 0.00 96 1047.7
20260905051120 66 127 0.0 0.9 0.00 0.00 0.00 96 1047.8
20260905050610 66 148 0.0 2.6 0.00 0.00 0.00 96 1047.7
20260905050107 66 96 0.9 1.7 0.00 0.00 0.00 96 1047.6
20260905045606 66 116 0.9 1.7 0.00 0.00 0.00 96 1047.5
20260905045102 66 77 2.6 2.6 0.00 0.00 0.00 95 1047.7
20260905044601 66 106 0.9 2.6 0.00 0.00 0.00 95 1047.8
20260905044056 66 149 0.9 1.7 0.00 0.00 0.00 95 1047.8
20260905043555 66 56 0.0 2.6 0.00 0.00 0.00 95 1047.9
20260905043051 66 119 0.9 2.6 0.00 0.00 0.00 95 1048.1
20260905042549 66 126 0.0 1.7 0.00 0.00 0.00 95 1047.9
20260905042045 66 165 0.9 1.7 0.00 0.00 0.00 95 1047.9
20260905041540 66 77 2.6 2.6 0.00 0.00 0.00 95 1047.8
20260905041036 66 170 0.0 2.6 0.00 0.00 0.00 95 1047.9
20260905040535 66 111 0.9 1.7 0.00 0.00 0.00 94 1047.6
20260905040034 66 119 0.0 1.7 0.00 0.00 0.00 94 1047.6
20260905035529 66 61 2.6 2.6 0.00 0.00 0.00 94 1047.7
20260905035026 67 152 2.6 4.3 0.00 0.00 0.00 94 1047.8
20260905034522 66 110 0.9 2.6 0.00 0.00 0.00 94 1047.8
20260905034021 66 126 0.0 0.9 0.00 0.00 0.00 94 1047.9
20260905033515 66 82 0.9 0.9 0.00 0.00 0.00 94 1048.2
20260905033011 66 127 0.0 0.9 0.00 0.00 0.00 94 1048.0
20260905032506 66 38 0.9 1.7 0.00 0.00 0.00 94 1048.2
20260905032001 66 136 0.0 0.0 0.00 0.00 0.00 94 1048.1
20260905031456 66 98 0.9 0.9 0.00 0.00 0.00 94 1047.9
20260905030951 66 132 1.7 4.3 0.00 0.00 0.00 94 1047.9
20260905030447 66 87 0.9 1.7 0.00 0.00 0.00 94 1048.0
20260905025945 66 160 0.9 4.3 0.00 0.00 0.00 94 1047.8
20260905025441 66 49 0.9 1.7 0.00 0.00 0.00 94 1047.9
20260905024937 66 113 0.0 0.9 0.00 0.00 0.00 94 1047.6
20260905024432 66 134 0.0 0.0 0.00 0.00 0.00 94 1047.8
20260905023927 66 124 0.0 0.0 0.00 0.00 0.00 94 1047.7
20260905023422 66 123 0.0 0.9 0.00 0.00 0.00 94 1047.7
20260905022921 66 111 0.0 1.7 0.00 0.00 0.00 94 1047.6
20260905022417 66 143 0.0 0.9 0.00 0.00 0.00 94 1047.6
20260905021911 66 96 0.0 1.7 0.00 0.00 0.00 94 1047.6
20260905021406 66 152 0.0 1.7 0.00 0.00 0.00 94 1047.8
20260905020901 66 90 0.9 2.6 0.00 0.00 0.00 93 1047.6
20260905020400 66 59 1.7 1.7 0.00 0.00 0.00 93 1047.6
20260905015855 66 80 0.9 1.7 0.00 0.00 0.00 93 1047.5
20260905015354 66 127 0.0 1.7 0.00 0.00 0.00 92 1047.6